Showing default

QIANFAN-3, 60381

Orbit data source: Space-Track

QIANFAN-3, 60381 is a Chinese payload satellite in LEO that was launched on Tue, 06 Aug 2024 UTC via a CHANG ZHENG 6A launch vehicle from the Taiyaun Space Center, China (TSC). Payload-class satellites include a variety of spacecraft equipped with specific instruments for various scientific and technological missions. These include communications satellites like Starlink; space stations such as the ISS; scientific satellites like the Hubble; Earth observation satellites from companies like Planet Labs, Umbra, and HawkEye 360; GPS; miniature CubeSats for education and research; and military/defense satellites.

Loading next visibility...
Identifier
60381, 2024-140C
Orbit
LEO
Country
Flag of CNCN / PRC
Related business
Manufacturer
SECM
Mission
Operational Commercial Communications
Bus & Motor
QIANFAN, Unknown motor
Mass
267 kg wet, ~267 kg dry
Launch date (UTC)
2024-08-06 (1 year ago)
Launch vehicle
CHANG ZHENG 6A
Launch site
Taiyaun Space Center, China (TSC)
Object type
Payload
Rocket body
Debris
Shape & HBR
Box + 1 Pan, 5.0 m
Radar Cross Section
13.200 m², Large (>1 m²)

Expand to show TLE details & history
Last TLE update: 22 hours ago

TLE from 22 hours ago
0 QIANFAN-3
1 60381U 24140C   25312.80827295  .00000041  00000-0  44387-4 0  9998
2 60381  88.9708 302.7779 0012273 303.1930  56.8044 13.50976713 62736
Epoch: 2025-11-08T19:23Z
TLE epoch observation values (Epoch: 2025-11-08T19:23:54.782Z)
Latitude
-0.00001°
Longitude
-36.43293°
Altitude
1,066.623 km
Speed
7.321 km/s
True Right ascension
20h 11m 06s
True Declination
0° 00' 00"
Sunlit
Object was in daylight at epoch
Visualization orbit readout
Latitude
Unknown
Longitude
Unknown
Altitude
Unknown
Speed
Unknown
Apparent Right ascension
Unknown
Apparent Declination
Unknown
Sunlit
N/A
Visualization observer readout
Local Sidereal Time
13:49:49
Azimuth
Unknown
Elevation
Unknown
Doppler factor
Unknown
Orbital elements
Apogee altitude
1,074.854 km
Perigee altitude
1,056.583 km
Semi-major axis
7,443.855 km
Eccentricity
0.00123
Inclination
88.9708°
RAAN
302.7779°
Arg. of periapsis
303.193°
True anomaly
56.92219°
Mean anomaly
56.8044°
Eccentric anomaly
56.86328°
Mean motion
3.37945 °/min
Orbital period
106.53 mins
BSTAR
0.000044387
Loading maneuver chart data...
Computing Atmospheric mass density...
Loading historical data...
Loading historical data...
Loading historical data...
Loading historical data...
Loading historical data...
Loading historical data...
Loading historical data...

Documentation

Showing up to 5 results
|